Regional Weather Roundup
Issued by NWS Goodland, KS

Home | Current Version | Previous Version | Text Only | Print | Product List | Glossary On
Versions: 1 2 3 4 5 6 7 8 9 10 11 12 13 14 15 16 17 18 19 20 21 22 23 24 25 26 27 28 29 30 31 32 33 34 35 36 37 38 39 40 41 42 43 44 45 46 47 48 49 50
000
ASUS43 KGLD 262308
RWRGLD

GOODLAND FORECAST AREA HOURLY WEATHER ROUNDUP
NATIONAL WEATHER SERVICE GOODLAND KS
500 PM MDT WED JUL 26 2017

...OFFICIAL OBSERVATIONS...

CITY           SKY/WX    TMP DP  RH WIND       PRES   REMARKS
GOODLAND KS    MOSUNNY   83  66  56 NE16G24   30.08F
HILL CITY KS   MOSUNNY   90  71  53 N17       29.98R
IMPERIAL NEB   CLOUDY    79  64  60 NE14      30.11R
MCCOOK NEB     CLOUDY    80  68  66 NE15      30.05F
AKRON CO       PTSUNNY   81  58  45 NE12G22   30.17F
BURLINGTON CO  MOSUNNY   85  64  49 NE13      30.12S
LIMON CO       PTSUNNY   78  59  51 N13       30.20S
$$

...UNOFFICIAL OBSERVATIONS...

CITY           SKY/WX    TMP DP  RH WIND       PRES   REMARKS
LENORA KS        N/A     81  32  17 MISG        N/A
NORTON KS      PTSUNNY   79  66  65 N15G21    30.02R
SHARON SPRINGS   N/A     85  69  59 NE12G20     N/A
TRENTON NEB      N/A     76  32  20 NE6         N/A
KIT CARSON CO    N/A     86  63  46 MISG        N/A
YUMA CO        CLOUDY    81  54  39 NE14      30.13F
$$



USA.gov is the U.S. government's official web portal to all federal, state and local government web resources and services.